{"data":{"norad_id":67141,"epoch":"2026-09-20T19:17:46.487328Z","epoch_age_seconds":79840,"freshness":"FRESH","line1":"1 67141U 25301J   26263.80401027  .00001192  00000+0  18530-3 0  9993","line2":"2 67141  51.9040 297.8842 0000633  98.1148 261.9887 14.79938550 42416","mean_motion":14.7993855,"eccentricity":6.33e-5,"inclination_deg":51.904,"raan_deg":297.8842,"arg_perigee_deg":98.1148,"mean_anomaly_deg":261.9887,"bstar":0.0001853,"rev_number":4241,"period_min":97.301337275119,"perigee_km":629.07452468662,"apogee_km":629.96169382346,"semimajor_km":7007.655109255,"source":"CELESTRAK","updated_at":"2026-09-21T09:00:16.456041Z"}}